Air Quality Table

TIMESTAMP NO2 SO2 PM10 PM2.5 CO TEMP HUM AIRPRES WS WD NO
2022-08-10 22:00 16.21 µg/m3 2.47 µg/m3 N/A N/A N/A 28.49 °C 66.98 % 1,011.51 mbar 0.56 m/s 241.82 Deg 1.26 µg/m3
2022-08-10 21:00 22.5 µg/m3 2.35 µg/m3 N/A N/A N/A 28.6 °C 66.88 % 1,011.34 mbar 0.89 m/s 263.01 Deg 3.59 µg/m3
2022-08-10 20:00 19.49 µg/m3 3.68 µg/m3 N/A N/A N/A 29.12 °C 58.49 % 1,011.20 mbar 1.43 m/s 269.98 Deg 13.03 µg/m3
2022-08-10 19:00 15.91 µg/m3 2.55 µg/m3 N/A N/A N/A 29.75 °C 59.73 % 1,011.10 mbar 1.44 m/s 295.48 Deg 2.67 µg/m3
2022-08-10 18:00 10.64 µg/m3 2.19 µg/m3 N/A N/A N/A 29.99 °C 64.44 % 1,010.89 mbar 1.44 m/s 317.87 Deg 1.97 µg/m3
2022-08-10 17:00 11.44 µg/m3 1.97 µg/m3 N/A N/A N/A 29.98 °C 60.01 % 1,011.01 mbar 2.7 m/s 209.92 Deg 4.3 µg/m3
2022-08-10 16:00 16.2 µg/m3 2.39 µg/m3 N/A N/A N/A 30.63 °C 56.23 % 1,011.06 mbar 2.9 m/s 188.93 Deg 7.29 µg/m3
2022-08-10 15:00 11.93 µg/m3 1.05 µg/m3 N/A N/A N/A 31.11 °C 59.26 % 1,011.13 mbar 1.39 m/s 192.7 Deg 3.92 µg/m3
2022-08-10 14:00 9.9 µg/m3 2.1 µg/m3 N/A N/A N/A 29.63 °C 69.21 % 1,011.82 mbar 0.72 m/s 282.78 Deg 2.14 µg/m3
2022-08-10 13:00 9.3 µg/m3 2.56 µg/m3 N/A N/A N/A 30.68 °C 65.11 % 1,012.07 mbar 0.94 m/s 295.4 Deg 2.34 µg/m3
2022-08-10 12:00 9.86 µg/m3 2.42 µg/m3 N/A N/A N/A 30.22 °C 66.61 % 1,012.23 mbar 0.93 m/s 158.68 Deg 2.77 µg/m3
2022-08-10 11:00 13.84 µg/m3 2.19 µg/m3 N/A N/A N/A 30.36 °C 64.36 % 1,012.30 mbar 0.95 m/s 225.38 Deg 4.77 µg/m3
2022-08-10 10:00 18.74 µg/m3 2.03 µg/m3 N/A N/A N/A 29.68 °C 67.86 % 1,012.21 mbar 0.79 m/s 217.38 Deg 11.42 µg/m3
2022-08-10 09:00 20.87 µg/m3 2.2 µg/m3 N/A N/A N/A 28.95 °C 71.58 % 1,012.08 mbar 0.83 m/s 212.39 Deg 3.45 µg/m3
2022-08-10 08:00 19.27 µg/m3 2.01 µg/m3 N/A N/A N/A 27.86 °C 75.77 % 1,011.87 mbar 1.58 m/s 227.9 Deg 2.45 µg/m3
2022-08-10 07:00 25.57 µg/m3 2.22 µg/m3 N/A N/A N/A 27.1 °C 81.86 % 1,011.63 mbar 2.53 m/s 219.03 Deg 3.98 µg/m3
2022-08-10 06:00 45.48 µg/m3 2.64 µg/m3 N/A N/A N/A 27.16 °C 83.94 % 1,011.41 mbar 2.01 m/s 210.38 Deg 6.4 µg/m3
2022-08-10 05:00 44.98 µg/m3 2.38 µg/m3 N/A N/A N/A 27.23 °C 84.75 % 1,011.00 mbar 1.31 m/s 216.85 Deg 7.25 µg/m3
2022-08-10 04:00 51.54 µg/m3 2.32 µg/m3 N/A N/A N/A 27.21 °C 83.63 % 1,011.06 mbar 1.63 m/s 215.03 Deg 16.38 µg/m3
2022-08-10 03:00 42.18 µg/m3 1.89 µg/m3 N/A N/A N/A 27.58 °C 81.45 % 1,011.19 mbar 0.92 m/s 213.09 Deg 5.03 µg/m3
2022-08-10 02:00 50.62 µg/m3 2.05 µg/m3 N/A N/A N/A 27.46 °C 82.07 % 1,011.37 mbar 1.85 m/s 216.94 Deg 10.87 µg/m3
2022-08-10 01:00 34.96 µg/m3 1.97 µg/m3 N/A N/A N/A 27.97 °C 80.14 % 1,011.65 mbar 1.37 m/s 203.77 Deg 2.23 µg/m3
2022-08-10 00:00 10.24 µg/m3 2.05 µg/m3 N/A N/A N/A 28.28 °C 79.34 % 1,012.04 mbar 0.64 m/s 273.84 Deg 0.79 µg/m3

It is to be noted that the data is provisional and subject to quality assurance procedures. For validated data kindly refer your request to contact.air@era.org.mt